Weather reports worldwide

Advertisment
Elphin, United Kingdom (99153): temperature & dewpoint: 11.12.2017 23:00:00 - 17.12.2017 23:00:00 (GMT)Elphin, United Kingdom (99153): precipitation: 11.12.2017 23:00:00 - 17.12.2017 23:00:00 (GMT)
Date & Time tt [°C] td [°C] rr [mm]
17.12.2017 23:00:00 - - -
17.12.2017 22:00:00 3,6 2,4 0,2
17.12.2017 21:00:00 5,0 3,6 0,0
17.12.2017 20:00:00 4,4 3,2 0,4
17.12.2017 19:00:00 4,8 3,2 0,4
17.12.2017 18:00:00 5,3 3,1 0,0
17.12.2017 17:00:00 4,4 2,8 0,0
17.12.2017 16:00:00 5,2 3,4 0,0
17.12.2017 15:00:00 5,3 3,7 0,0
17.12.2017 14:00:00 5,5 3,2 0,2
17.12.2017 13:00:00 5,4 4,4 0,6
17.12.2017 12:00:00 5,5 4,4 0,2
17.12.2017 11:00:00 6,0 5,9 1,2
17.12.2017 10:00:00 7,4 7,0 1,4
17.12.2017 09:00:00 6,7 6,1 2,8
17.12.2017 08:00:00 4,9 4,3 0,2
17.12.2017 07:00:00 4,9 4,5 2,0
17.12.2017 06:00:00 3,7 3,4 0,6
17.12.2017 05:00:00 2,6 2,2 0,4
17.12.2017 04:00:00 3,5 3,1 0,8
17.12.2017 03:00:00 3,0 2,6 0,6
17.12.2017 02:00:00 2,2 1,5 0,2
17.12.2017 01:00:00 0,8 0,1 0,0
17.12.2017 00:00:00 0,9 0,5 0,0
16.12.2017 23:00:00 0,7 0,2 0,0
16.12.2017 22:00:00 0,1 0,0 0,0
16.12.2017 21:00:00 -0,6 -0,8 0,0
16.12.2017 20:00:00 0,6 0,5 0,0
16.12.2017 19:00:00 -0,5 -0,6 0,0
16.12.2017 18:00:00 -0,2 -0,5 0,0
16.12.2017 17:00:00 0,6 0,4 0,0
16.12.2017 16:00:00 0,4 0,1 0,2
16.12.2017 15:00:00 0,4 0,1 0,2
16.12.2017 14:00:00 0,7 0,3 0,8
16.12.2017 13:00:00 0,9 0,5 0,2
16.12.2017 12:00:00 -0,2 -0,7 0,0
16.12.2017 11:00:00 -0,6 -1,1 0,0
16.12.2017 10:00:00 -1,1 -1,8 0,0
16.12.2017 09:00:00 0,5 -0,5 0,0
16.12.2017 08:00:00 1,0 -0,7 0,0
16.12.2017 07:00:00 0,3 -1,2 0,0
16.12.2017 06:00:00 1,1 -0,5 0,0
16.12.2017 05:00:00 1,5 -0,2 0,0
16.12.2017 04:00:00 1,2 0,0 0,0
16.12.2017 03:00:00 1,4 0,7 0,0
16.12.2017 02:00:00 1,2 0,4 0,6
16.12.2017 01:00:00 1,2 0,4 0,2
16.12.2017 00:00:00 1,5 0,2 0,0
15.12.2017 23:00:00 1,3 -0,2 0,0
15.12.2017 22:00:00 1,8 0,7 0,6
15.12.2017 21:00:00 0,9 0,1 0,4
15.12.2017 20:00:00 1,2 0,0 0,2
15.12.2017 19:00:00 2,0 -1,1 0,2
15.12.2017 18:00:00 - - 0,4
15.12.2017 17:00:00 2,2 -0,7 0,0
15.12.2017 16:00:00 2,8 -0,2 0,6
15.12.2017 15:00:00 1,3 0,6 0,6
15.12.2017 14:00:00 2,0 1,1 0,4
15.12.2017 13:00:00 1,5 0,6 0,8
15.12.2017 12:00:00 2,2 0,5 0,4
15.12.2017 11:00:00 3,0 0,7 0,0
15.12.2017 10:00:00 2,4 0,8 0,4
15.12.2017 09:00:00 2,5 1,0 0,4
15.12.2017 08:00:00 2,5 1,3 1,4
15.12.2017 07:00:00 1,4 -0,1 0,0
15.12.2017 06:00:00 3,7 -0,3 0,0
15.12.2017 05:00:00 3,3 -0,4 0,0
15.12.2017 04:00:00 3,1 0,8 0,0
15.12.2017 03:00:00 3,3 0,4 0,0
15.12.2017 02:00:00 3,6 1,5 1,0
15.12.2017 01:00:00 3,9 1,7 0,4
15.12.2017 00:00:00 2,7 1,7 3,8
14.12.2017 23:00:00 1,9 1,2 1,6
14.12.2017 22:00:00 2,2 0,9 0,8
14.12.2017 21:00:00 2,4 -0,2 0,0
14.12.2017 20:00:00 3,2 1,0 0,0
14.12.2017 19:00:00 3,0 1,3 0,0
14.12.2017 18:00:00 3,2 1,4 0,0
14.12.2017 17:00:00 2,9 2,1 0,0
14.12.2017 16:00:00 2,2 1,6 0,4
14.12.2017 15:00:00 2,3 1,6 0,8
14.12.2017 14:00:00 2,5 2,0 1,2
14.12.2017 13:00:00 - - -
14.12.2017 12:00:00 - - -
14.12.2017 11:00:00 - - -
14.12.2017 10:00:00 - - -
14.12.2017 09:00:00 - - 0,0
14.12.2017 08:00:00 - - -
14.12.2017 07:00:00 - - -
14.12.2017 06:00:00 - - -
14.12.2017 05:00:00 - - -
14.12.2017 04:00:00 - - -
14.12.2017 03:00:00 - - -
14.12.2017 02:00:00 - - -
14.12.2017 01:00:00 - - -
14.12.2017 00:00:00 - - -
13.12.2017 23:00:00 - - -
13.12.2017 22:00:00 - - -
13.12.2017 21:00:00 - - -
13.12.2017 20:00:00 - - -
13.12.2017 19:00:00 - - -
13.12.2017 18:00:00 - - -
13.12.2017 17:00:00 - - -
13.12.2017 16:00:00 - - -
13.12.2017 15:00:00 - - -
13.12.2017 14:00:00 - - -
13.12.2017 13:00:00 - - -
13.12.2017 12:00:00 - - -
13.12.2017 11:00:00 - - -
13.12.2017 10:00:00 - - -
13.12.2017 09:00:00 - - -
13.12.2017 08:00:00 - - -
13.12.2017 07:00:00 - - -
13.12.2017 06:00:00 - - -
13.12.2017 05:00:00 - - -
13.12.2017 04:00:00 - - -
13.12.2017 03:00:00 - - -
13.12.2017 02:00:00 - - -
13.12.2017 01:00:00 - - -
13.12.2017 00:00:00 - - -
12.12.2017 23:00:00 - - -
12.12.2017 22:00:00 - - -
12.12.2017 21:00:00 - - -
12.12.2017 20:00:00 - - -
12.12.2017 19:00:00 - - -
12.12.2017 18:00:00 - - -
12.12.2017 17:00:00 - - -
12.12.2017 16:00:00 - - -
12.12.2017 15:00:00 - - -
12.12.2017 14:00:00 - - -
12.12.2017 13:00:00 - - -
12.12.2017 12:00:00 - - -
12.12.2017 11:00:00 - - -
12.12.2017 10:00:00 - - -
12.12.2017 09:00:00 - - -
12.12.2017 08:00:00 - - -
12.12.2017 07:00:00 - - -
12.12.2017 06:00:00 - - -
12.12.2017 05:00:00 - - -
12.12.2017 04:00:00 - - -
12.12.2017 03:00:00 - - -
12.12.2017 02:00:00 - - -
12.12.2017 01:00:00 - - -
12.12.2017 00:00:00 - - -
11.12.2017 23:00:00 - - -

tt = temperature
td = dewpoint
rr = precipitation

Next stations